This is the latest recevied weather packets stored in our database for station/object W4DHW-4. If no packets are shown the sender has not sent any weather packets the latest 10 day(s).
| Time | Temp. | Humidity | Pressure | Rain* | Wind** | Luminosity | Snow |
|---|---|---|---|---|---|---|---|
| 1777898141 | 11.11° C | 70% | 1016.8 hPa | 0 mm | - | 312 W/m² | - |
| 1777897838 | 10.56° C | 70% | 1016.8 hPa | 0 mm | - | 292 W/m² | - |
| 1777897533 | 10.56° C | 72% | 1017 hPa | 0 mm | - | 281 W/m² | - |
| 1777897229 | 10.56° C | 73% | 1017 hPa | 0 mm | - | 272 W/m² | - |
| 1777896926 | 10° C | 76% | 1016.8 hPa | 0 mm | - | 230 W/m² | - |
| 1777896623 | 9.44° C | 76% | 1017 hPa | 0 mm | - | 221 W/m² | - |
| 1777896320 | 10° C | 76% | 1016.8 hPa | 0 mm | - | 200 W/m² | - |
| 1777896018 | 9.44° C | 77% | 1017.2 hPa | 0 mm | - | 196 W/m² | - |
| 1777895716 | 9.44° C | 77% | 1016.9 hPa | 0 mm | - | 167 W/m² | - |
| 1777895413 | 9.44° C | 77% | 1017 hPa | 0 mm | - | 155 W/m² | - |
| 1777895110 | 9.44° C | 77% | 1017.1 hPa | 0 mm | - | 145 W/m² | - |
| 1777894808 | 8.89° C | 79% | 1017 hPa | 0 mm | - | 123 W/m² | - |
| 1777894504 | 8.89° C | 80% | 1017.1 hPa | 0 mm | - | 107 W/m² | - |
| 1777894201 | 8.33° C | 81% | 1017.1 hPa | 0 mm | - | 94 W/m² | - |
| 1777893898 | 7.78° C | 82% | 1017.1 hPa | 0 mm | - | 81 W/m² | - |
| 1777893594 | 7.78° C | 83% | 1017.2 hPa | 0 mm | - | 70 W/m² | - |
| 1777893291 | 7.22° C | 83% | 1017.4 hPa | 0 mm | - | 47 W/m² | - |
| 1777892987 | 6.67° C | 88% | 1017.1 hPa | 0 mm | - | 42 W/m² | - |
| 1777892684 | 6.11° C | 89% | 1017.1 hPa | 0 mm | - | 36 W/m² | - |
| 1777892380 | 5.56° C | 89% | 1017.2 hPa | 0 mm | - | 32 W/m² | - |
| 1777892076 | 6.11° C | 88% | 1016.9 hPa | 0 mm | - | 26 W/m² | - |
| 1777891774 | 5.56° C | 88% | 1016.9 hPa | 0 mm | - | 22 W/m² | - |
| 1777891470 | 6.11° C | 88% | 1017 hPa | 0 mm | - | 15 W/m² | - |
| 1777891166 | 6.11° C | 88% | 1017 hPa | 0 mm | - | 12 W/m² | - |
| 1777890866 | 6.11° C | 88% | 1016.9 hPa | 0 mm | - | 8 W/m² | - |
* Rain latest hour (hover to see other rain measurements)
** Current wind speed in m/s (hover to see current wind gust speed)